<?xml version='1.0' encoding='UTF-8'?>
<gpx xmlns="http://www.topografix.com/GPX/1/1" creator="www.balnam.be" version="1.1" xmlns:xsi="http://www.w3.org/2001/XMLSchema-instance" xsi:schemaLocation="http://www.topografix.com/GPX/1/1 http://www.topografix.com/GPX/1/1/gpx.xsd">
<trk>
<name>hchld1</name>
<cmt>r</cmt>
<desc>Lodelinsart Chemin n°1 Rue du Warchat</desc>
<link href="https://chemins.be/lodelinsart/chemin/1"/><trkseg>
<trkpt lat="50.424969" lon="4.437816"><time>2026-05-02T18:42:43Z</time></trkpt>
<trkpt lat="50.425109" lon="4.437406"><time>2026-05-02T18:52:43Z</time></trkpt>
</trkseg></trk>
<trk>
<name>hchld1</name>
<cmt>b</cmt>
<desc>Lodelinsart Chemin n°1 Rue du Warchat</desc>
<link href="https://chemins.be/lodelinsart/chemin/1"/><trkseg>
<trkpt lat="50.425109" lon="4.437406"><time>2026-05-02T18:52:43Z</time></trkpt>
<trkpt lat="50.425024" lon="4.436861"><time>2026-05-02T19:02:43Z</time></trkpt>
<trkpt lat="50.424700" lon="4.436543"><time>2026-05-02T19:12:43Z</time></trkpt>
</trkseg>
</trk>
<trk>
<name>hchld14</name>
<cmt>d</cmt>
<desc>Lodelinsart Chemin n°14 </desc>
<link href="https://chemins.be/lodelinsart/chemin/14"/><trkseg>
<trkpt lat="50.434098" lon="4.453017"><time>2026-05-02T18:42:43Z</time></trkpt>
<trkpt lat="50.433852" lon="4.452402"><time>2026-05-02T18:52:43Z</time></trkpt>
</trkseg>
</trk>
<trk>
<name>hchld15</name>
<cmt>s</cmt>
<desc>Lodelinsart Chemin n°15 </desc>
<link href="https://chemins.be/lodelinsart/chemin/15"/><trkseg>
<trkpt lat="50.431352" lon="4.452386"><time>2026-05-02T18:42:43Z</time></trkpt>
<trkpt lat="50.431999" lon="4.453724"><time>2026-05-02T18:52:43Z</time></trkpt>
</trkseg>
</trk>
<trk>
<name>hchld19</name>
<cmt>r</cmt>
<desc>Lodelinsart Chemin n°19 </desc>
<link href="https://chemins.be/lodelinsart/chemin/19"/><trkseg>
<trkpt lat="50.431393" lon="4.432921"><time>2026-05-02T18:42:43Z</time></trkpt>
<trkpt lat="50.431081" lon="4.432369"><time>2026-05-02T18:52:43Z</time></trkpt>
</trkseg></trk>
<trk>
<name>hchld19</name>
<cmt>s</cmt>
<desc>Lodelinsart Chemin n°19 </desc>
<link href="https://chemins.be/lodelinsart/chemin/19"/><trkseg>
<trkpt lat="50.431081" lon="4.432369"><time>2026-05-02T18:52:43Z</time></trkpt>
<trkpt lat="50.430714" lon="4.431719"><time>2026-05-02T19:02:43Z</time></trkpt>
</trkseg>
</trk>
<trk>
<name>hchld2</name>
<cmt>d</cmt>
<desc>Lodelinsart Chemin n°2 </desc>
<link href="https://chemins.be/lodelinsart/chemin/2"/><trkseg>
<trkpt lat="50.431338" lon="4.451442"><time>2026-05-02T18:42:43Z</time></trkpt>
<trkpt lat="50.432075" lon="4.452340"><time>2026-05-02T18:52:43Z</time></trkpt>
</trkseg></trk>
<trk>
<name>hchld2</name>
<cmt>s</cmt>
<desc>Lodelinsart Chemin n°2 </desc>
<link href="https://chemins.be/lodelinsart/chemin/2"/><trkseg>
<trkpt lat="50.432075" lon="4.452340"><time>2026-05-02T18:52:43Z</time></trkpt>
<trkpt lat="50.432295" lon="4.452608"><time>2026-05-02T19:02:43Z</time></trkpt>
<trkpt lat="50.432790" lon="4.452969"><time>2026-05-02T19:12:43Z</time></trkpt>
</trkseg></trk>
<trk>
<name>hchld2</name>
<cmt>d</cmt>
<desc>Lodelinsart Chemin n°2 </desc>
<link href="https://chemins.be/lodelinsart/chemin/2"/><trkseg>
<trkpt lat="50.432790" lon="4.452969"><time>2026-05-02T19:12:43Z</time></trkpt>
<trkpt lat="50.433270" lon="4.453409"><time>2026-05-02T19:22:43Z</time></trkpt>
</trkseg>
</trk>
<trk>
<name>hchld22</name>
<cmt>r</cmt>
<desc>Lodelinsart Sentier n°22 Rue de la Croix / Rue des Hauchies</desc>
<link href="https://chemins.be/lodelinsart/sentier/22"/><trkseg>
<trkpt lat="50.437577" lon="4.452165"><time>2026-05-02T18:42:43Z</time></trkpt>
<trkpt lat="50.436839" lon="4.453755"><time>2026-05-02T18:52:43Z</time></trkpt>
<trkpt lat="50.435777" lon="4.455766"><time>2026-05-02T19:02:43Z</time></trkpt>
<trkpt lat="50.434327" lon="4.458226"><time>2026-05-02T19:12:43Z</time></trkpt>
<trkpt lat="50.432968" lon="4.460194"><time>2026-05-02T19:22:43Z</time></trkpt>
<trkpt lat="50.432491" lon="4.461390"><time>2026-05-02T19:32:43Z</time></trkpt>
</trkseg></trk>
<trk>
<name>hchld22</name>
<cmt>s</cmt>
<desc>Lodelinsart Sentier n°22 Rue de la Croix / Rue des Hauchies</desc>
<link href="https://chemins.be/lodelinsart/sentier/22"/><trkseg>
<trkpt lat="50.432491" lon="4.461390"><time>2026-05-02T19:32:43Z</time></trkpt>
<trkpt lat="50.431663" lon="4.462824"><time>2026-05-02T19:42:43Z</time></trkpt>
</trkseg>
</trk>
<trk>
<name>hchld23</name>
<cmt>q</cmt>
<desc>Lodelinsart Sentier n°23 </desc>
<link href="https://chemins.be/lodelinsart/sentier/23"/><trkseg>
<trkpt lat="50.430235" lon="4.460147"><time>2026-05-02T18:42:43Z</time></trkpt>
<trkpt lat="50.430938" lon="4.459353"><time>2026-05-02T18:52:43Z</time></trkpt>
</trkseg></trk>
<trk>
<name>hchld23</name>
<cmt>s</cmt>
<desc>Lodelinsart Sentier n°23 </desc>
<link href="https://chemins.be/lodelinsart/sentier/23"/><trkseg>
<trkpt lat="50.430938" lon="4.459353"><time>2026-05-02T18:52:43Z</time></trkpt>
<trkpt lat="50.431207" lon="4.459037"><time>2026-05-02T19:02:43Z</time></trkpt>
<trkpt lat="50.432995" lon="4.460222"><time>2026-05-02T19:12:43Z</time></trkpt>
</trkseg>
</trk>
<trk>
<name>hchld24</name>
<cmt>q</cmt>
<desc>Lodelinsart Sentier n°24 </desc>
<link href="https://chemins.be/lodelinsart/sentier/24"/><trkseg>
<trkpt lat="50.430592" lon="4.459751"><time>2026-05-02T18:42:43Z</time></trkpt>
<trkpt lat="50.430602" lon="4.458503"><time>2026-05-02T18:52:43Z</time></trkpt>
</trkseg></trk>
<trk>
<name>hchld24</name>
<cmt>s</cmt>
<desc>Lodelinsart Sentier n°24 </desc>
<link href="https://chemins.be/lodelinsart/sentier/24"/><trkseg>
<trkpt lat="50.430602" lon="4.458503"><time>2026-05-02T18:52:43Z</time></trkpt>
<trkpt lat="50.430750" lon="4.457628"><time>2026-05-02T19:02:43Z</time></trkpt>
</trkseg></trk>
<trk>
<name>hchld24</name>
<cmt>r</cmt>
<desc>Lodelinsart Sentier n°24 </desc>
<link href="https://chemins.be/lodelinsart/sentier/24"/><trkseg>
<trkpt lat="50.430750" lon="4.457628"><time>2026-05-02T19:02:43Z</time></trkpt>
<trkpt lat="50.430930" lon="4.456643"><time>2026-05-02T19:12:43Z</time></trkpt>
<trkpt lat="50.431211" lon="4.454631"><time>2026-05-02T19:22:43Z</time></trkpt>
<trkpt lat="50.431409" lon="4.453857"><time>2026-05-02T19:32:43Z</time></trkpt>
</trkseg></trk>
<trk>
<name>hchld24</name>
<cmt>q</cmt>
<desc>Lodelinsart Sentier n°24 </desc>
<link href="https://chemins.be/lodelinsart/sentier/24"/><trkseg>
<trkpt lat="50.431409" lon="4.453857"><time>2026-05-02T19:32:43Z</time></trkpt>
<trkpt lat="50.431553" lon="4.453281"><time>2026-05-02T19:42:43Z</time></trkpt>
</trkseg>
</trk>
<trk>
<name>hchld25</name>
<cmt>q</cmt>
<desc>Lodelinsart Sentier n°25 Rue Terry Mouchon</desc>
<link href="https://chemins.be/lodelinsart/sentier/25"/><trkseg>
<trkpt lat="50.431966" lon="4.453901"><time>2026-05-02T18:42:43Z</time></trkpt>
<trkpt lat="50.431318" lon="4.454533"><time>2026-05-02T18:52:43Z</time></trkpt>
</trkseg>
</trk>
<trk>
<name>hchld26</name>
<cmt>r</cmt>
<desc>Lodelinsart Sentier n°26 Rue de la Station</desc>
<link href="https://chemins.be/lodelinsart/sentier/26"/><trkseg>
<trkpt lat="50.431986" lon="4.463218"><time>2026-05-02T18:42:43Z</time></trkpt>
<trkpt lat="50.432309" lon="4.463881"><time>2026-05-02T18:52:43Z</time></trkpt>
<trkpt lat="50.432776" lon="4.464684"><time>2026-05-02T19:02:43Z</time></trkpt>
</trkseg>
</trk>
<trk>
<name>hchld27</name>
<cmt>v</cmt>
<desc>Lodelinsart Sentier n°27 </desc>
<link href="https://chemins.be/lodelinsart/sentier/27"/><trkseg>
<trkpt lat="50.431957" lon="4.453760"><time>2026-05-02T18:42:43Z</time></trkpt>
<trkpt lat="50.432308" lon="4.453127"><time>2026-05-02T18:52:43Z</time></trkpt>
</trkseg></trk>
<trk>
<name>hchld27</name>
<cmt>s</cmt>
<desc>Lodelinsart Sentier n°27 </desc>
<link href="https://chemins.be/lodelinsart/sentier/27"/><trkseg>
<trkpt lat="50.432308" lon="4.453127"><time>2026-05-02T18:52:43Z</time></trkpt>
<trkpt lat="50.432552" lon="4.452621"><time>2026-05-02T19:02:43Z</time></trkpt>
<trkpt lat="50.434198" lon="4.450808"><time>2026-05-02T19:12:43Z</time></trkpt>
<trkpt lat="50.434495" lon="4.450063"><time>2026-05-02T19:22:43Z</time></trkpt>
<trkpt lat="50.435161" lon="4.449219"><time>2026-05-02T19:32:43Z</time></trkpt>
<trkpt lat="50.435467" lon="4.448882"><time>2026-05-02T19:42:43Z</time></trkpt>
</trkseg>
</trk>
<trk>
<name>hchld28</name>
<cmt>q</cmt>
<desc>Lodelinsart Sentier n°28 </desc>
<link href="https://chemins.be/lodelinsart/sentier/28"/><trkseg>
<trkpt lat="50.431984" lon="4.453802"><time>2026-05-02T18:42:43Z</time></trkpt>
<trkpt lat="50.431562" lon="4.453407"><time>2026-05-02T18:52:43Z</time></trkpt>
</trkseg></trk>
<trk>
<name>hchld28</name>
<cmt>s</cmt>
<desc>Lodelinsart Sentier n°28 </desc>
<link href="https://chemins.be/lodelinsart/sentier/28"/><trkseg>
<trkpt lat="50.431562" lon="4.453407"><time>2026-05-02T18:52:43Z</time></trkpt>
<trkpt lat="50.431302" lon="4.453083"><time>2026-05-02T19:02:43Z</time></trkpt>
<trkpt lat="50.431311" lon="4.452239"><time>2026-05-02T19:12:43Z</time></trkpt>
</trkseg>
</trk>
<trk>
<name>hchld29</name>
<cmt>r</cmt>
<desc>Lodelinsart Sentier n°29 Rue du Cimetière / Rue Alfred Defuisseaux</desc>
<link href="https://chemins.be/lodelinsart/sentier/29"/><trkseg>
<trkpt lat="50.432455" lon="4.448651"><time>2026-05-02T18:42:43Z</time></trkpt>
<trkpt lat="50.432969" lon="4.447751"><time>2026-05-02T18:52:43Z</time></trkpt>
<trkpt lat="50.433822" lon="4.448274"><time>2026-05-02T19:02:43Z</time></trkpt>
<trkpt lat="50.435639" lon="4.447531"><time>2026-05-02T19:12:43Z</time></trkpt>
</trkseg>
</trk>
<trk>
<name>hchld30</name>
<cmt>r</cmt>
<desc>Lodelinsart Sentier n°30 Rue du Cimetière</desc>
<link href="https://chemins.be/lodelinsart/sentier/30"/><trkseg>
<trkpt lat="50.433510" lon="4.444219"><time>2026-05-02T18:42:43Z</time></trkpt>
<trkpt lat="50.433005" lon="4.447723"><time>2026-05-02T18:52:43Z</time></trkpt>
</trkseg>
</trk>
<trk>
<name>hchld31</name>
<cmt>b</cmt>
<desc>Lodelinsart Sentier n°31 </desc>
<link href="https://chemins.be/lodelinsart/sentier/31"/><trkseg>
<trkpt lat="50.431450" lon="4.446130"><time>2026-05-02T18:42:43Z</time></trkpt>
<trkpt lat="50.431945" lon="4.446497"><time>2026-05-02T18:52:43Z</time></trkpt>
<trkpt lat="50.433050" lon="4.447456"><time>2026-05-02T19:02:43Z</time></trkpt>
</trkseg>
</trk>
<trk>
<name>hchld32</name>
<cmt>v</cmt>
<desc>Lodelinsart Sentier n°32 </desc>
<link href="https://chemins.be/lodelinsart/sentier/32"/><trkseg>
<trkpt lat="50.430767" lon="4.448702"><time>2026-05-02T18:42:43Z</time></trkpt>
<trkpt lat="50.430777" lon="4.448267"><time>2026-05-02T18:52:43Z</time></trkpt>
<trkpt lat="50.430950" lon="4.447538"><time>2026-05-02T19:02:43Z</time></trkpt>
<trkpt lat="50.431180" lon="4.446566"><time>2026-05-02T19:12:43Z</time></trkpt>
</trkseg>
</trk>
<trk>
<name>hchld33</name>
<cmt>v</cmt>
<desc>Lodelinsart Sentier n°33 </desc>
<link href="https://chemins.be/lodelinsart/sentier/33"/><trkseg>
<trkpt lat="50.431102" lon="4.442372"><time>2026-05-02T18:42:43Z</time></trkpt>
<trkpt lat="50.430985" lon="4.443160"><time>2026-05-02T18:52:43Z</time></trkpt>
<trkpt lat="50.431191" lon="4.444159"><time>2026-05-02T19:02:43Z</time></trkpt>
<trkpt lat="50.431353" lon="4.444272"><time>2026-05-02T19:12:43Z</time></trkpt>
<trkpt lat="50.431703" lon="4.445300"><time>2026-05-02T19:22:43Z</time></trkpt>
</trkseg>
</trk>
<trk>
<name>hchld34</name>
<cmt>r</cmt>
<desc>Lodelinsart Sentier n°34 Rue du Mayeur / Rue des Hayettes</desc>
<link href="https://chemins.be/lodelinsart/sentier/34"/><trkseg>
<trkpt lat="50.432847" lon="4.440925"><time>2026-05-02T18:42:43Z</time></trkpt>
<trkpt lat="50.432702" lon="4.443205"><time>2026-05-02T18:52:43Z</time></trkpt>
<trkpt lat="50.431630" lon="4.445708"><time>2026-05-02T19:02:43Z</time></trkpt>
</trkseg>
</trk>
<trk>
<name>hchld35</name>
<cmt>q</cmt>
<desc>Lodelinsart Sentier n°35 </desc>
<link href="https://chemins.be/lodelinsart/sentier/35"/><trkseg>
<trkpt lat="50.432689" lon="4.443229"><time>2026-05-02T18:42:43Z</time></trkpt>
<trkpt lat="50.430633" lon="4.445102"><time>2026-05-02T18:52:43Z</time></trkpt>
</trkseg>
</trk>
<trk>
<name>hchld36</name>
<cmt>v</cmt>
<desc>Lodelinsart Sentier n°36 Chaussée de Châtelet / Sentier Martin</desc>
<link href="https://chemins.be/lodelinsart/sentier/36"/><trkseg>
<trkpt lat="50.430290" lon="4.447071"><time>2026-05-02T18:42:43Z</time></trkpt>
<trkpt lat="50.429760" lon="4.446733"><time>2026-05-02T18:52:43Z</time></trkpt>
</trkseg></trk>
<trk>
<name>hchld36</name>
<cmt>r</cmt>
<desc>Lodelinsart Sentier n°36 Chaussée de Châtelet / Sentier Martin</desc>
<link href="https://chemins.be/lodelinsart/sentier/36"/><trkseg>
<trkpt lat="50.429760" lon="4.446733"><time>2026-05-02T18:52:43Z</time></trkpt>
<trkpt lat="50.429787" lon="4.446128"><time>2026-05-02T19:02:43Z</time></trkpt>
</trkseg></trk>
<trk>
<name>hchld36</name>
<cmt>v</cmt>
<desc>Lodelinsart Sentier n°36 Chaussée de Châtelet / Sentier Martin</desc>
<link href="https://chemins.be/lodelinsart/sentier/36"/><trkseg>
<trkpt lat="50.429787" lon="4.446128"><time>2026-05-02T19:02:43Z</time></trkpt>
<trkpt lat="50.429426" lon="4.445944"><time>2026-05-02T19:12:43Z</time></trkpt>
<trkpt lat="50.429266" lon="4.445803"><time>2026-05-02T19:22:43Z</time></trkpt>
<trkpt lat="50.428859" lon="4.445201"><time>2026-05-02T19:32:43Z</time></trkpt>
<trkpt lat="50.428574" lon="4.444873"><time>2026-05-02T19:42:43Z</time></trkpt>
<trkpt lat="50.428249" lon="4.444726"><time>2026-05-02T19:52:43Z</time></trkpt>
</trkseg></trk>
<trk>
<name>hchld36</name>
<cmt>d</cmt>
<desc>Lodelinsart Sentier n°36 Chaussée de Châtelet / Sentier Martin</desc>
<link href="https://chemins.be/lodelinsart/sentier/36"/><trkseg>
<trkpt lat="50.428249" lon="4.444726"><time>2026-05-02T19:52:43Z</time></trkpt>
<trkpt lat="50.428006" lon="4.444212"><time>2026-05-02T20:02:43Z</time></trkpt>
<trkpt lat="50.427918" lon="4.444070"><time>2026-05-02T20:12:43Z</time></trkpt>
<trkpt lat="50.427802" lon="4.443816"><time>2026-05-02T20:22:43Z</time></trkpt>
<trkpt lat="50.427651" lon="4.443380"><time>2026-05-02T20:32:43Z</time></trkpt>
<trkpt lat="50.427488" lon="4.443098"><time>2026-05-02T20:42:43Z</time></trkpt>
</trkseg></trk>
<trk>
<name>hchld36</name>
<cmt>v</cmt>
<desc>Lodelinsart Sentier n°36 Chaussée de Châtelet / Sentier Martin</desc>
<link href="https://chemins.be/lodelinsart/sentier/36"/><trkseg>
<trkpt lat="50.427488" lon="4.443098"><time>2026-05-02T20:42:43Z</time></trkpt>
<trkpt lat="50.427065" lon="4.442788"><time>2026-05-02T20:52:43Z</time></trkpt>
<trkpt lat="50.426607" lon="4.442168"><time>2026-05-02T21:02:43Z</time></trkpt>
</trkseg></trk>
<trk>
<name>hchld36</name>
<cmt>q</cmt>
<desc>Lodelinsart Sentier n°36 Chaussée de Châtelet / Sentier Martin</desc>
<link href="https://chemins.be/lodelinsart/sentier/36"/><trkseg>
<trkpt lat="50.426607" lon="4.442168"><time>2026-05-02T21:02:43Z</time></trkpt>
<trkpt lat="50.426320" lon="4.441548"><time>2026-05-02T21:12:43Z</time></trkpt>
<trkpt lat="50.425889" lon="4.440436"><time>2026-05-02T21:22:43Z</time></trkpt>
<trkpt lat="50.425845" lon="4.439661"><time>2026-05-02T21:32:43Z</time></trkpt>
<trkpt lat="50.425279" lon="4.438042"><time>2026-05-02T21:42:43Z</time></trkpt>
<trkpt lat="50.425018" lon="4.437873"><time>2026-05-02T21:52:43Z</time></trkpt>
</trkseg>
</trk>
<trk>
<name>hchld37</name>
<cmt>r</cmt>
<desc>Lodelinsart Sentier n°37 </desc>
<link href="https://chemins.be/lodelinsart/sentier/37"/><trkseg>
<trkpt lat="50.428992" lon="4.451292"><time>2026-05-02T18:42:43Z</time></trkpt>
<trkpt lat="50.428741" lon="4.451376"><time>2026-05-02T18:52:43Z</time></trkpt>
<trkpt lat="50.428588" lon="4.451516"><time>2026-05-02T19:02:43Z</time></trkpt>
</trkseg>
</trk>
<trk>
<name>hchld38</name>
<cmt>v</cmt>
<desc>Lodelinsart Sentier n°38 </desc>
<link href="https://chemins.be/lodelinsart/sentier/38"/><trkseg>
<trkpt lat="50.429210" lon="4.448041"><time>2026-05-02T18:42:43Z</time></trkpt>
<trkpt lat="50.428302" lon="4.448687"><time>2026-05-02T18:52:43Z</time></trkpt>
</trkseg></trk>
<trk>
<name>hchld38</name>
<cmt>s</cmt>
<desc>Lodelinsart Sentier n°38 </desc>
<link href="https://chemins.be/lodelinsart/sentier/38"/><trkseg>
<trkpt lat="50.428302" lon="4.448687"><time>2026-05-02T18:52:43Z</time></trkpt>
<trkpt lat="50.428023" lon="4.448616"><time>2026-05-02T19:02:43Z</time></trkpt>
<trkpt lat="50.427663" lon="4.448939"><time>2026-05-02T19:12:43Z</time></trkpt>
</trkseg>
</trk>
<trk>
<name>hchld39</name>
<cmt>r</cmt>
<desc>Lodelinsart Sentier n°39 Rue Mondron</desc>
<link href="https://chemins.be/lodelinsart/sentier/39"/><trkseg>
<trkpt lat="50.425482" lon="4.444404"><time>2026-05-02T18:42:43Z</time></trkpt>
<trkpt lat="50.424691" lon="4.443825"><time>2026-05-02T18:52:43Z</time></trkpt>
<trkpt lat="50.423425" lon="4.442050"><time>2026-05-02T19:02:43Z</time></trkpt>
<trkpt lat="50.423021" lon="4.440572"><time>2026-05-02T19:12:43Z</time></trkpt>
</trkseg>
</trk>
<trk>
<name>hchld40</name>
<cmt>q</cmt>
<desc>Lodelinsart Sentier n°40 </desc>
<link href="https://chemins.be/lodelinsart/sentier/40"/><trkseg>
<trkpt lat="50.423416" lon="4.441909"><time>2026-05-02T18:42:43Z</time></trkpt>
<trkpt lat="50.423091" lon="4.443274"><time>2026-05-02T18:52:43Z</time></trkpt>
<trkpt lat="50.424206" lon="4.443163"><time>2026-05-02T19:02:43Z</time></trkpt>
</trkseg>
</trk>
<trk>
<name>hchld41</name>
<cmt>v</cmt>
<desc>Lodelinsart Sentier n°41 Rue Morel</desc>
<link href="https://chemins.be/lodelinsart/sentier/41"/><trkseg>
<trkpt lat="50.426703" lon="4.442186"><time>2026-05-02T18:42:43Z</time></trkpt>
<trkpt lat="50.426358" lon="4.442766"><time>2026-05-02T18:52:43Z</time></trkpt>
</trkseg></trk>
<trk>
<name>hchld41</name>
<cmt>r</cmt>
<desc>Lodelinsart Sentier n°41 Rue Morel</desc>
<link href="https://chemins.be/lodelinsart/sentier/41"/><trkseg>
<trkpt lat="50.426358" lon="4.442766"><time>2026-05-02T18:52:43Z</time></trkpt>
<trkpt lat="50.425806" lon="4.443827"><time>2026-05-02T19:02:43Z</time></trkpt>
</trkseg>
</trk>
<trk>
<name>hchld42</name>
<cmt>s</cmt>
<desc>Lodelinsart Sentier n°42 </desc>
<link href="https://chemins.be/lodelinsart/sentier/42"/><trkseg>
<trkpt lat="50.427039" lon="4.441957"><time>2026-05-02T18:42:43Z</time></trkpt>
<trkpt lat="50.429611" lon="4.440849"><time>2026-05-02T18:52:43Z</time></trkpt>
</trkseg>
</trk>
<trk>
<name>hchld43</name>
<cmt>s</cmt>
<desc>Lodelinsart Sentier n°43 </desc>
<link href="https://chemins.be/lodelinsart/sentier/43"/><trkseg>
<trkpt lat="50.427883" lon="4.443901"><time>2026-05-02T18:42:43Z</time></trkpt>
<trkpt lat="50.425833" lon="4.443757"><time>2026-05-02T18:52:43Z</time></trkpt>
</trkseg>
</trk>
<trk>
<name>hchld44</name>
<cmt>b</cmt>
<desc>Lodelinsart Sentier n°44 Ruelle des Aulniats</desc>
<link href="https://chemins.be/lodelinsart/sentier/44"/><trkseg>
<trkpt lat="50.431090" lon="4.432533"><time>2026-05-02T18:42:43Z</time></trkpt>
<trkpt lat="50.430721" lon="4.432997"><time>2026-05-02T18:52:43Z</time></trkpt>
</trkseg></trk>
<trk>
<name>hchld44</name>
<cmt>v</cmt>
<desc>Lodelinsart Sentier n°44 Ruelle des Aulniats</desc>
<link href="https://chemins.be/lodelinsart/sentier/44"/><trkseg>
<trkpt lat="50.430721" lon="4.432997"><time>2026-05-02T18:52:43Z</time></trkpt>
<trkpt lat="50.430389" lon="4.431998"><time>2026-05-02T19:02:43Z</time></trkpt>
</trkseg></trk>
<trk>
<name>hchld44</name>
<cmt>b</cmt>
<desc>Lodelinsart Sentier n°44 Ruelle des Aulniats</desc>
<link href="https://chemins.be/lodelinsart/sentier/44"/><trkseg>
<trkpt lat="50.430389" lon="4.431998"><time>2026-05-02T19:02:43Z</time></trkpt>
<trkpt lat="50.430056" lon="4.432293"><time>2026-05-02T19:12:43Z</time></trkpt>
<trkpt lat="50.429751" lon="4.431420"><time>2026-05-02T19:22:43Z</time></trkpt>
<trkpt lat="50.429533" lon="4.430605"><time>2026-05-02T19:32:43Z</time></trkpt>
</trkseg></trk>
<trk>
<name>hchld44</name>
<cmt>v</cmt>
<desc>Lodelinsart Sentier n°44 Ruelle des Aulniats</desc>
<link href="https://chemins.be/lodelinsart/sentier/44"/><trkseg>
<trkpt lat="50.429533" lon="4.430605"><time>2026-05-02T19:32:43Z</time></trkpt>
<trkpt lat="50.429490" lon="4.431659"><time>2026-05-02T19:42:43Z</time></trkpt>
</trkseg></trk>
<trk>
<name>hchld44</name>
<cmt>d</cmt>
<desc>Lodelinsart Sentier n°44 Ruelle des Aulniats</desc>
<link href="https://chemins.be/lodelinsart/sentier/44"/><trkseg>
<trkpt lat="50.429490" lon="4.431659"><time>2026-05-02T19:42:43Z</time></trkpt>
<trkpt lat="50.429013" lon="4.432446"><time>2026-05-02T19:52:43Z</time></trkpt>
<trkpt lat="50.428456" lon="4.432361"><time>2026-05-02T20:02:43Z</time></trkpt>
</trkseg></trk>
<trk>
<name>hchld44</name>
<cmt>s</cmt>
<desc>Lodelinsart Sentier n°44 Ruelle des Aulniats</desc>
<link href="https://chemins.be/lodelinsart/sentier/44"/><trkseg>
<trkpt lat="50.428456" lon="4.432361"><time>2026-05-02T20:02:43Z</time></trkpt>
<trkpt lat="50.425494" lon="4.436275"><time>2026-05-02T20:12:43Z</time></trkpt>
<trkpt lat="50.425401" lon="4.437082"><time>2026-05-02T20:22:43Z</time></trkpt>
<trkpt lat="50.425045" lon="4.436867"><time>2026-05-02T20:32:43Z</time></trkpt>
<trkpt lat="50.424039" lon="4.436962"><time>2026-05-02T20:42:43Z</time></trkpt>
</trkseg>
</trk>
<trk>
<name>hchld45</name>
<cmt>s</cmt>
<desc>Lodelinsart Sentier n°45 </desc>
<link href="https://chemins.be/lodelinsart/sentier/45"/><trkseg>
<trkpt lat="50.430169" lon="4.439583"><time>2026-05-02T18:42:43Z</time></trkpt>
<trkpt lat="50.430403" lon="4.439246"><time>2026-05-02T18:52:43Z</time></trkpt>
<trkpt lat="50.430917" lon="4.437220"><time>2026-05-02T19:02:43Z</time></trkpt>
<trkpt lat="50.432068" lon="4.435856"><time>2026-05-02T19:12:43Z</time></trkpt>
</trkseg>
</trk>
<trk>
<name>hchld46</name>
<cmt>q</cmt>
<desc>Lodelinsart Sentier n°46 </desc>
<link href="https://chemins.be/lodelinsart/sentier/46"/><trkseg>
<trkpt lat="50.429059" lon="4.430757"><time>2026-05-02T18:42:43Z</time></trkpt>
<trkpt lat="50.429437" lon="4.430645"><time>2026-05-02T18:52:43Z</time></trkpt>
</trkseg></trk>
<trk>
<name>hchld46</name>
<cmt>s</cmt>
<desc>Lodelinsart Sentier n°46 </desc>
<link href="https://chemins.be/lodelinsart/sentier/46"/><trkseg>
<trkpt lat="50.429437" lon="4.430645"><time>2026-05-02T18:52:43Z</time></trkpt>
<trkpt lat="50.430291" lon="4.430491"><time>2026-05-02T19:02:43Z</time></trkpt>
</trkseg>
</trk>
<trk>
<name>hchld47</name>
<cmt>r</cmt>
<desc>Lodelinsart Sentier n°47 </desc>
<link href="https://chemins.be/lodelinsart/sentier/47"/><trkseg>
<trkpt lat="50.424450" lon="4.425488"><time>2026-05-02T18:42:43Z</time></trkpt>
<trkpt lat="50.426546" lon="4.423422"><time>2026-05-02T18:52:43Z</time></trkpt>
<trkpt lat="50.427580" lon="4.422100"><time>2026-05-02T19:02:43Z</time></trkpt>
<trkpt lat="50.428093" lon="4.421369"><time>2026-05-02T19:12:43Z</time></trkpt>
<trkpt lat="50.429316" lon="4.420680"><time>2026-05-02T19:22:43Z</time></trkpt>
</trkseg>
</trk>
<trk>
<name>hchld48</name>
<cmt>r</cmt>
<desc>Lodelinsart Sentier n°48 Rue du Cerisier</desc>
<link href="https://chemins.be/lodelinsart/sentier/48"/><trkseg>
<trkpt lat="50.435831" lon="4.442548"><time>2026-05-02T18:42:43Z</time></trkpt>
<trkpt lat="50.435855" lon="4.447545"><time>2026-05-02T18:52:43Z</time></trkpt>
<trkpt lat="50.435720" lon="4.447728"><time>2026-05-02T19:02:43Z</time></trkpt>
</trkseg></trk>
<trk>
<name>hchld48</name>
<cmt>s</cmt>
<desc>Lodelinsart Sentier n°48 Rue du Cerisier</desc>
<link href="https://chemins.be/lodelinsart/sentier/48"/><trkseg>
<trkpt lat="50.435720" lon="4.447728"><time>2026-05-02T19:02:43Z</time></trkpt>
<trkpt lat="50.435611" lon="4.449332"><time>2026-05-02T19:12:43Z</time></trkpt>
</trkseg>
</trk>
<trk>
<name>hchld5</name>
<cmt>r</cmt>
<desc>Lodelinsart Chemin n°5 Place Edmond Gilles / Rue Albert Delwarte</desc>
<link href="https://chemins.be/lodelinsart/chemin/5"/><trkseg>
<trkpt lat="50.430594" lon="4.448811"><time>2026-05-02T18:42:43Z</time></trkpt>
<trkpt lat="50.431445" lon="4.448747"><time>2026-05-02T18:52:43Z</time></trkpt>
<trkpt lat="50.432054" lon="4.448505"><time>2026-05-02T19:02:43Z</time></trkpt>
<trkpt lat="50.432692" lon="4.449138"><time>2026-05-02T19:12:43Z</time></trkpt>
<trkpt lat="50.432576" lon="4.450141"><time>2026-05-02T19:22:43Z</time></trkpt>
</trkseg>
</trk>
<trk>
<name>hchldi1</name>
<cmt>r</cmt>
<desc>Lodelinsart Chemin n°i1 Rue du Chemin Vert</desc>
<link href="https://chemins.be/lodelinsart/chemin/i1"/><trkseg>
<trkpt lat="50.427792" lon="4.441934"><time>2026-05-02T18:42:43Z</time></trkpt>
<trkpt lat="50.427686" lon="4.443221"><time>2026-05-02T18:52:43Z</time></trkpt>
</trkseg>
</trk>
<trk>
<name>hchldi2</name>
<cmt>v</cmt>
<desc>Lodelinsart Sentier n°i2 </desc>
<link href="https://chemins.be/lodelinsart/sentier/i2"/><trkseg>
<trkpt lat="50.430387" lon="4.432018"><time>2026-05-02T18:42:43Z</time></trkpt>
<trkpt lat="50.430098" lon="4.431006"><time>2026-05-02T18:52:43Z</time></trkpt>
<trkpt lat="50.430130" lon="4.430870"><time>2026-05-02T19:02:43Z</time></trkpt>
</trkseg>
</trk>
<trk>
<name>hchldi3</name>
<cmt>v</cmt>
<desc>Lodelinsart Chemin n°i3 </desc>
<link href="https://chemins.be/lodelinsart/chemin/i3"/><trkseg>
<trkpt lat="50.427986" lon="4.450276"><time>2026-05-02T18:42:43Z</time></trkpt>
<trkpt lat="50.427334" lon="4.449157"><time>2026-05-02T18:52:43Z</time></trkpt>
</trkseg></trk>
<trk>
<name>hchldi3</name>
<cmt>q</cmt>
<desc>Lodelinsart Chemin n°i3 </desc>
<link href="https://chemins.be/lodelinsart/chemin/i3"/><trkseg>
<trkpt lat="50.427334" lon="4.449157"><time>2026-05-02T18:52:43Z</time></trkpt>
<trkpt lat="50.426290" lon="4.448076"><time>2026-05-02T19:02:43Z</time></trkpt>
<trkpt lat="50.424852" lon="4.445260"><time>2026-05-02T19:12:43Z</time></trkpt>
</trkseg>
</trk>
<trk>
<name>hchldi4</name>
<cmt>v</cmt>
<desc>Lodelinsart Sentier n°i4 Ruelle des Aulniats</desc>
<link href="https://chemins.be/lodelinsart/sentier/i4"/><trkseg>
<trkpt lat="50.427920" lon="4.425168"><time>2026-05-02T18:42:43Z</time></trkpt>
<trkpt lat="50.428127" lon="4.425520"><time>2026-05-02T18:52:43Z</time></trkpt>
<trkpt lat="50.428190" lon="4.425816"><time>2026-05-02T19:02:43Z</time></trkpt>
<trkpt lat="50.428423" lon="4.426422"><time>2026-05-02T19:12:43Z</time></trkpt>
<trkpt lat="50.429135" lon="4.429235"><time>2026-05-02T19:22:43Z</time></trkpt>
</trkseg></trk>
<trk>
<name>hchldi4</name>
<cmt>r</cmt>
<desc>Lodelinsart Sentier n°i4 Ruelle des Aulniats</desc>
<link href="https://chemins.be/lodelinsart/sentier/i4"/><trkseg>
<trkpt lat="50.429135" lon="4.429235"><time>2026-05-02T19:22:43Z</time></trkpt>
<trkpt lat="50.429482" lon="4.430645"><time>2026-05-02T19:32:43Z</time></trkpt>
</trkseg>
</trk>
<trk>
<name>hchldi5</name>
<cmt>v</cmt>
<desc>Lodelinsart Chemin n°i5 Rue Huart</desc>
<link href="https://chemins.be/lodelinsart/chemin/i5"/><trkseg>
<trkpt lat="50.429465" lon="4.428998"><time>2026-05-02T18:42:43Z</time></trkpt>
<trkpt lat="50.430028" lon="4.430698"><time>2026-05-02T18:52:43Z</time></trkpt>
<trkpt lat="50.430144" lon="4.430855"><time>2026-05-02T19:02:43Z</time></trkpt>
<trkpt lat="50.430633" lon="4.430988"><time>2026-05-02T19:12:43Z</time></trkpt>
</trkseg>
</trk>
<trk>
<name>hchldi6</name>
<cmt>q</cmt>
<desc>Lodelinsart Sentier n°i6 </desc>
<link href="https://chemins.be/lodelinsart/sentier/i6"/><trkseg>
<trkpt lat="50.429028" lon="4.444545"><time>2026-05-02T18:42:43Z</time></trkpt>
<trkpt lat="50.428692" lon="4.444960"><time>2026-05-02T18:52:43Z</time></trkpt>
</trkseg>
</trk>
<trk>
<name>hchldL119A</name>
<cmt>q</cmt>
<desc>Lodelinsart Chemin n°L119A </desc>
<link href="https://chemins.be/lodelinsart/chemin/L119A"/><trkseg>
<trkpt lat="50.433282" lon="4.436266"><time>2026-05-02T18:42:43Z</time></trkpt>
<trkpt lat="50.432392" lon="4.435702"><time>2026-05-02T18:52:43Z</time></trkpt>
<trkpt lat="50.430999" lon="4.433955"><time>2026-05-02T19:02:43Z</time></trkpt>
<trkpt lat="50.430209" lon="4.431983"><time>2026-05-02T19:12:43Z</time></trkpt>
<trkpt lat="50.429375" lon="4.429350"><time>2026-05-02T19:22:43Z</time></trkpt>
</trkseg>
</trk>
<trk>
<name>hchldL264</name>
<cmt>q</cmt>
<desc>Lodelinsart Chemin n°L264 Chemin de fer de Lodelinsart à Jumet (La Coupe) / Sentier Martin / Rue Bellevue</desc>
<link href="https://chemins.be/lodelinsart/chemin/L264"/><trkseg>
<trkpt lat="50.431072" lon="4.458952"><time>2026-05-02T18:42:43Z</time></trkpt>
<trkpt lat="50.430723" lon="4.457882"><time>2026-05-02T18:52:43Z</time></trkpt>
<trkpt lat="50.430562" lon="4.455756"><time>2026-05-02T19:02:43Z</time></trkpt>
<trkpt lat="50.430375" lon="4.453194"><time>2026-05-02T19:12:43Z</time></trkpt>
<trkpt lat="50.430162" lon="4.450548"><time>2026-05-02T19:22:43Z</time></trkpt>
<trkpt lat="50.429570" lon="4.448027"><time>2026-05-02T19:32:43Z</time></trkpt>
<trkpt lat="50.428933" lon="4.446168"><time>2026-05-02T19:42:43Z</time></trkpt>
<trkpt lat="50.428312" lon="4.444990"><time>2026-05-02T19:52:43Z</time></trkpt>
<trkpt lat="50.427562" lon="4.443441"><time>2026-05-02T20:02:43Z</time></trkpt>
<trkpt lat="50.427425" lon="4.442887"><time>2026-05-02T20:12:43Z</time></trkpt>
</trkseg></trk>
<trk>
<name>hchldL264</name>
<cmt>b</cmt>
<desc>Lodelinsart Chemin n°L264 Chemin de fer de Lodelinsart à Jumet (La Coupe) / Sentier Martin / Rue Bellevue</desc>
<link href="https://chemins.be/lodelinsart/chemin/L264"/><trkseg>
<trkpt lat="50.427425" lon="4.442887"><time>2026-05-02T20:12:43Z</time></trkpt>
<trkpt lat="50.427093" lon="4.441873"><time>2026-05-02T20:22:43Z</time></trkpt>
<trkpt lat="50.426941" lon="4.440620"><time>2026-05-02T20:32:43Z</time></trkpt>
<trkpt lat="50.427023" lon="4.438636"><time>2026-05-02T20:42:43Z</time></trkpt>
</trkseg></trk>
<trk>
<name>hchldL264</name>
<cmt>r</cmt>
<desc>Lodelinsart Chemin n°L264 Chemin de fer de Lodelinsart à Jumet (La Coupe) / Sentier Martin / Rue Bellevue</desc>
<link href="https://chemins.be/lodelinsart/chemin/L264"/><trkseg>
<trkpt lat="50.427023" lon="4.438636"><time>2026-05-02T20:42:43Z</time></trkpt>
<trkpt lat="50.427914" lon="4.435949"><time>2026-05-02T20:52:43Z</time></trkpt>
<trkpt lat="50.429003" lon="4.434135"><time>2026-05-02T21:02:43Z</time></trkpt>
</trkseg></trk>
<trk>
<name>hchldL264</name>
<cmt>s</cmt>
<desc>Lodelinsart Chemin n°L264 Chemin de fer de Lodelinsart à Jumet (La Coupe) / Sentier Martin / Rue Bellevue</desc>
<link href="https://chemins.be/lodelinsart/chemin/L264"/><trkseg>
<trkpt lat="50.429003" lon="4.434135"><time>2026-05-02T21:02:43Z</time></trkpt>
<trkpt lat="50.429858" lon="4.432574"><time>2026-05-02T21:12:43Z</time></trkpt>
<trkpt lat="50.430135" lon="4.432261"><time>2026-05-02T21:22:43Z</time></trkpt>
<trkpt lat="50.430720" lon="4.431657"><time>2026-05-02T21:32:43Z</time></trkpt>
</trkseg>
</trk>
</gpx>